User: anonymous   Login
Location: Newark
(41.8083°N, 72.2500°W)
Time: 22:42:59
(UTC+00:00)
Language:

Transit 2A Rocket - Orbit

View from above orbital plane
View from above orbital plane
View from above satellite
View from above satellite

Ground track
Ground track

The orbit data is extracted from the following two-line orbital elements,

1 00047U 60007C   21331.60287211 -.00000005  00000-0  23983-4 0  9996
2 00047  66.6642 182.6999 0234647 276.6385  80.8063 14.42197207210836
Epoch (UTC): 27 November 2021 14:28:08
Eccentricity: 0.0234647
inclination: 66.6642°
perigee height: 584 km
apogee height: 918 km
right ascension of ascending node: 182.6999°
argument of perigee: 276.6385°
revolutions per day: 14.42197207
mean anomaly at epoch: 80.8063°
orbit number at epoch: 21083

The dashed part of the orbit path shows where the satellite is in the earth's shadow,  

DLR